Flag for Germany Weather past 2 weeks in Monheim am Rhein, North Rhine-Westphalia, Germany

Now
70 °F

Clear.


Feels Like: 70 °F
Forecast: 74 / 96 °F
Wind: 6 mph from Northwest

Location: Duesseldorf

Current Time: Jul 3, 2015 at 5:41:31 AM

Latest Report: Jul 3, 2015 at 4:50 AM


Visibility: 10 mi

Pressure: 30.21 "Hg

Humidity: 83%

Dew point: 64 °F

Location of Monheim am RheinLocation

Historic Weather in Monheim am Rhein — Graph

°F

Monheim am Rhein temperature yesterday

Maximum temperature yesterday: 99 °F (at 3:20 PM)
Minimum temperature yesterday: 77 °F (at 4:50 AM)
Average temperature yesterday: 87 °F

Past Weeks' High & Low Weather Summary

 TemperatureHumidityPressure
High99 °F (Jul 2, 3:20 PM)100% (Jun 18, 5:50 AM)30.21 "Hg (Jun 18, 5:50 AM)
Low50 °F (Jun 22, 10:20 PM)23% (Jul 1, 5:20 PM)29.71 "Hg (Jun 22, 5:50 PM)
Average65 °F67%30.06 "Hg
* Reported Jun 18 4:20 AM — Jul 3 4:20 AM, Monheim am Rhein, Weather by CustomWeather, © 2015

Note: Actual official high and low records may vary slightly from our data, if they occured in-between our weather recording intervals... More about our weather records

Advertising

Monheim am Rhein weather history for previous 24 hours

 ConditionsComfort  
Time TempWeatherWind HumidityBarometerVisibility
4:20 AM
Fri, Jul 3
70 °FClear.6 mph78%30.21 "Hg10 mi
3:50 AM72 °FClear.3 mph73%30.21 "Hg10 mi
3:20 AM72 °FClear.6 mph73%30.18 "Hg10 mi
2:50 AM73 °FClear.7 mph69%30.18 "Hg10 mi
2:20 AM73 °FClear.9 mph69%30.18 "Hg10 mi
1:50 AM75 °FClear.6 mph69%30.18 "Hg10 mi
1:20 AM75 °FPassing clouds.5 mph69%30.18 "HgN/A
12:50 AM75 °FThundershowers. Partly cloudy.10 mph69%30.15 "HgN/A
12:20 AM75 °FThunderstorms. Partly cloudy.9 mph69%30.15 "HgN/A
11:50 PM
Thu, Jul 2
77 °FPassing clouds.10 mph65%30.12 "HgN/A
11:20 PM79 °FClear.14 mph61%30.12 "Hg10 mi
10:50 PM81 °FSunny.7 mph62%30.09 "Hg10 mi
10:20 PM81 °FPassing clouds.6 mph62%30.07 "HgN/A
9:50 PM82 °FSunny.7 mph62%30.07 "Hg10 mi
9:20 PM84 °FSunny.14 mph55%30.07 "Hg10 mi
8:50 PM88 °FSunny.10 mph55%30.07 "Hg10 mi
8:20 PM93 °FPassing clouds.7 mph36%30.04 "HgN/A
7:50 PM93 °FSunny.10 mph36%30.04 "Hg10 mi
7:20 PM95 °FSunny.13 mph34%30.04 "Hg10 mi
6:50 PM95 °FScattered clouds.13 mph34%30.04 "HgN/A
6:20 PM97 °FSunny.14 mph30%30.04 "Hg10 mi
5:50 PM97 °FSunny.14 mph30%30.04 "Hg10 mi
5:20 PM97 °FSunny.14 mph32%30.04 "Hg10 mi
4:50 PM97 °FSunny.15 mph32%30.04 "Hg10 mi
4:20 PM99 °FSunny.12 mph29%30.04 "Hg10 mi
3:50 PM99 °FSunny.14 mph29%30.04 "Hg10 mi
3:20 PM99 °FSunny.15 mph29%30.04 "Hg10 mi
2:50 PM97 °FSunny.13 mph32%30.04 "Hg10 mi
2:20 PM97 °FSunny.12 mph32%30.04 "Hg10 mi
1:50 PM95 °FSunny.9 mph32%30.04 "Hg10 mi
1:20 PM95 °FSunny.9 mph32%30.04 "Hg10 mi
12:50 PM95 °FSunny.10 mph34%30.04 "Hg10 mi
12:20 PM93 °FSunny.12 mph36%30.04 "Hg10 mi
11:50 AM91 °FSunny.8 mph36%30.07 "Hg10 mi
11:20 AM90 °FSunny.10 mph38%30.07 "Hg10 mi
10:50 AM90 °FSunny.10 mph41%30.04 "Hg10 mi
10:20 AM88 °FSunny.10 mph43%30.07 "Hg10 mi
9:50 AM86 °FSunny.13 mph43%30.07 "Hg10 mi
9:20 AM84 °FSunny.14 mph45%30.07 "Hg10 mi
8:50 AM84 °FSunny.14 mph43%30.07 "Hg10 mi
8:20 AM82 °FSunny.16 mph45%30.04 "Hg10 mi
7:50 AM81 °FSunny.16 mph48%30.04 "Hg10 mi
7:20 AM81 °FSunny.14 mph48%30.04 "Hg10 mi
6:50 AM79 °FSunny.13 mph48%30.04 "Hg10 mi
6:20 AM79 °FClear.12 mph48%30.04 "Hg10 mi
5:50 AM79 °FClear.10 mph48%30.04 "Hg10 mi
5:20 AM79 °FClear.9 mph48%30.04 "Hg10 mi
Weather by CustomWeather, © 2015

See weather overviewHow to use our weather pages